﻿測定場所 (Monitoring sites),日付 (Measurement date),時間 (Measurement time),線量率 最大値 (max) μGy/h,線量率 最小値 (min) μGy/h,線量率 平均値 (average) μGy/h,
江戸川 (Edogawa),2017-03-26,23:01～24:00,0.0614,0.0552,0.0585,
江戸川 (Edogawa),2017-03-26,22:01～23:00,0.0627,0.0531,0.0575,
江戸川 (Edogawa),2017-03-26,21:01～22:00,0.0605,0.0512,0.0557,
江戸川 (Edogawa),2017-03-26,20:01～21:00,0.0608,0.0535,0.0572,
江戸川 (Edogawa),2017-03-26,19:01～20:00,0.0628,0.0502,0.0562,
江戸川 (Edogawa),2017-03-26,18:01～19:00,0.0569,0.0483,0.0532,
江戸川 (Edogawa),2017-03-26,17:01～18:00,0.0579,0.0502,0.0540,
江戸川 (Edogawa),2017-03-26,16:01～17:00,0.0586,0.0515,0.0555,
江戸川 (Edogawa),2017-03-26,15:01～16:00,0.0585,0.0514,0.0557,
江戸川 (Edogawa),2017-03-26,14:01～15:00,0.0608,0.0512,0.0555,
江戸川 (Edogawa),2017-03-26,13:01～14:00,0.0636,0.0559,0.0599,
江戸川 (Edogawa),2017-03-26,12:01～13:00,0.0632,0.0545,0.0591,
江戸川 (Edogawa),2017-03-26,11:01～12:00,0.0650,0.0540,0.0577,
江戸川 (Edogawa),2017-03-26,10:01～11:00,0.0614,0.0532,0.0565,
江戸川 (Edogawa),2017-03-26,09:01～10:00,0.0580,0.0527,0.0550,
江戸川 (Edogawa),2017-03-26,08:01～09:00,0.0562,0.0506,0.0535,
江戸川 (Edogawa),2017-03-26,07:01～08:00,0.0572,0.0498,0.0545,
江戸川 (Edogawa),2017-03-26,06:01～07:00,0.0576,0.0526,0.0551,
江戸川 (Edogawa),2017-03-26,05:01～06:00,0.0604,0.0530,0.0558,
江戸川 (Edogawa),2017-03-26,04:01～05:00,0.0609,0.0531,0.0570,
江戸川 (Edogawa),2017-03-26,03:01～04:00,0.0578,0.0502,0.0548,
江戸川 (Edogawa),2017-03-26,02:01～03:00,0.0567,0.0504,0.0542,
江戸川 (Edogawa),2017-03-26,01:01～02:00,0.0565,0.0508,0.0535,
江戸川 (Edogawa),2017-03-26,00:01～01:00,0.0563,0.0502,0.0538,
江戸川 (Edogawa),2017-03-25,23:01～24:00,0.0564,0.0506,0.0533,
江戸川 (Edogawa),2017-03-25,22:01～23:00,0.0569,0.0507,0.0535,
江戸川 (Edogawa),2017-03-25,21:01～22:00,0.0570,0.0500,0.0534,
江戸川 (Edogawa),2017-03-25,20:01～21:00,0.0579,0.0496,0.0534,
江戸川 (Edogawa),2017-03-25,19:01～20:00,0.0563,0.0500,0.0534,
江戸川 (Edogawa),2017-03-25,18:01～19:00,0.0583,0.0500,0.0538,
江戸川 (Edogawa),2017-03-25,17:01～18:00,0.0580,0.0506,0.0537,
江戸川 (Edogawa),2017-03-25,16:01～17:00,0.0581,0.0496,0.0541,
江戸川 (Edogawa),2017-03-25,15:01～16:00,0.0577,0.0509,0.0540,
江戸川 (Edogawa),2017-03-25,14:01～15:00,0.0577,0.0507,0.0546,
江戸川 (Edogawa),2017-03-25,13:01～14:00,0.0573,0.0509,0.0543,
江戸川 (Edogawa),2017-03-25,12:01～13:00,0.0580,0.0513,0.0544,
江戸川 (Edogawa),2017-03-25,11:01～12:00,0.0579,0.0491,0.0542,
江戸川 (Edogawa),2017-03-25,10:01～11:00,0.0573,0.0495,0.0541,
江戸川 (Edogawa),2017-03-25,09:01～10:00,0.0566,0.0517,0.0539,
江戸川 (Edogawa),2017-03-25,08:01～09:00,0.0567,0.0502,0.0536,
江戸川 (Edogawa),2017-03-25,07:01～08:00,0.0573,0.0498,0.0532,
江戸川 (Edogawa),2017-03-25,06:01～07:00,0.0559,0.0498,0.0529,
江戸川 (Edogawa),2017-03-25,05:01～06:00,0.0560,0.0495,0.0532,
江戸川 (Edogawa),2017-03-25,04:01～05:00,0.0555,0.0499,0.0528,
江戸川 (Edogawa),2017-03-25,03:01～04:00,0.0569,0.0502,0.0530,
江戸川 (Edogawa),2017-03-25,02:01～03:00,0.0557,0.0498,0.0528,
江戸川 (Edogawa),2017-03-25,01:01～02:00,0.0563,0.0497,0.0528,
江戸川 (Edogawa),2017-03-25,00:01～01:00,0.0566,0.0503,0.0530,
江戸川 (Edogawa),2017-03-24,23:01～24:00,0.0565,0.0495,0.0530,
江戸川 (Edogawa),2017-03-24,22:01～23:00,0.0561,0.0496,0.0529,
江戸川 (Edogawa),2017-03-24,21:01～22:00,0.0575,0.0503,0.0532,
江戸川 (Edogawa),2017-03-24,20:01～21:00,0.0565,0.0487,0.0529,
江戸川 (Edogawa),2017-03-24,19:01～20:00,0.0566,0.0496,0.0530,
江戸川 (Edogawa),2017-03-24,18:01～19:00,0.0569,0.0491,0.0531,
江戸川 (Edogawa),2017-03-24,17:01～18:00,0.0565,0.0502,0.0530,
江戸川 (Edogawa),2017-03-24,16:01～17:00,0.0560,0.0505,0.0530,
江戸川 (Edogawa),2017-03-24,15:01～16:00,0.0565,0.0504,0.0534,
江戸川 (Edogawa),2017-03-24,14:01～15:00,0.0561,0.0499,0.0531,
江戸川 (Edogawa),2017-03-24,13:01～14:00,0.0560,0.0507,0.0534,
江戸川 (Edogawa),2017-03-24,12:01～13:00,0.0564,0.0503,0.0533,
江戸川 (Edogawa),2017-03-24,11:01～12:00,0.0578,0.0500,0.0538,
江戸川 (Edogawa),2017-03-24,10:01～11:00,0.0569,0.0503,0.0535,
江戸川 (Edogawa),2017-03-24,09:01～10:00,0.0563,0.0486,0.0536,
江戸川 (Edogawa),2017-03-24,08:01～09:00,0.0586,0.0490,0.0535,
江戸川 (Edogawa),2017-03-24,07:01～08:00,0.0565,0.0483,0.0536,
江戸川 (Edogawa),2017-03-24,06:01～07:00,0.0571,0.0473,0.0532,
江戸川 (Edogawa),2017-03-24,05:01～06:00,0.0560,0.0500,0.0531,
江戸川 (Edogawa),2017-03-24,04:01～05:00,0.0556,0.0502,0.0530,
江戸川 (Edogawa),2017-03-24,03:01～04:00,0.0574,0.0492,0.0534,
江戸川 (Edogawa),2017-03-24,02:01～03:00,0.0573,0.0496,0.0535,
江戸川 (Edogawa),2017-03-24,01:01～02:00,0.0565,0.0501,0.0535,
江戸川 (Edogawa),2017-03-24,00:01～01:00,0.0567,0.0499,0.0533,
江戸川 (Edogawa),2017-03-23,23:01～24:00,0.0566,0.0502,0.0534,
江戸川 (Edogawa),2017-03-23,22:01～23:00,0.0564,0.0498,0.0536,
江戸川 (Edogawa),2017-03-23,21:01～22:00,0.0566,0.0497,0.0536,
江戸川 (Edogawa),2017-03-23,20:01～21:00,0.0577,0.0497,0.0537,
江戸川 (Edogawa),2017-03-23,19:01～20:00,0.0586,0.0501,0.0534,
江戸川 (Edogawa),2017-03-23,18:01～19:00,0.0559,0.0501,0.0532,
江戸川 (Edogawa),2017-03-23,17:01～18:00,0.0574,0.0506,0.0538,
江戸川 (Edogawa),2017-03-23,16:01～17:00,0.0561,0.0505,0.0536,
江戸川 (Edogawa),2017-03-23,15:01～16:00,0.0587,0.0512,0.0542,
江戸川 (Edogawa),2017-03-23,14:01～15:00,0.0584,0.0509,0.0545,
江戸川 (Edogawa),2017-03-23,13:01～14:00,0.0579,0.0506,0.0539,
江戸川 (Edogawa),2017-03-23,12:01～13:00,0.0574,0.0503,0.0536,
江戸川 (Edogawa),2017-03-23,11:01～12:00,0.0572,0.0505,0.0535,
江戸川 (Edogawa),2017-03-23,10:01～11:00,0.0567,0.0506,0.0536,
江戸川 (Edogawa),2017-03-23,09:01～10:00,0.0579,0.0503,0.0536,
江戸川 (Edogawa),2017-03-23,08:01～09:00,0.0565,0.0491,0.0531,
江戸川 (Edogawa),2017-03-23,07:01～08:00,0.0557,0.0496,0.0527,
江戸川 (Edogawa),2017-03-23,06:01～07:00,0.0544,0.0495,0.0520,
江戸川 (Edogawa),2017-03-23,05:01～06:00,0.0563,0.0492,0.0523,
江戸川 (Edogawa),2017-03-23,04:01～05:00,0.0554,0.0494,0.0525,
江戸川 (Edogawa),2017-03-23,03:01～04:00,0.0553,0.0484,0.0525,
江戸川 (Edogawa),2017-03-23,02:01～03:00,0.0547,0.0498,0.0524,
江戸川 (Edogawa),2017-03-23,01:01～02:00,0.0553,0.0501,0.0531,
江戸川 (Edogawa),2017-03-23,00:01～01:00,0.0567,0.0493,0.0533,
江戸川 (Edogawa),2017-03-22,23:01～24:00,0.0594,0.0522,0.0547,
江戸川 (Edogawa),2017-03-22,22:01～23:00,0.0548,0.0491,0.0524,
江戸川 (Edogawa),2017-03-22,21:01～22:00,0.0553,0.0480,0.0525,
江戸川 (Edogawa),2017-03-22,20:01～21:00,0.0557,0.0492,0.0524,
江戸川 (Edogawa),2017-03-22,19:01～20:00,0.0562,0.0493,0.0528,
江戸川 (Edogawa),2017-03-22,18:01～19:00,0.0556,0.0497,0.0527,
江戸川 (Edogawa),2017-03-22,17:01～18:00,0.0562,0.0502,0.0528,
江戸川 (Edogawa),2017-03-22,16:01～17:00,0.0563,0.0490,0.0526,
江戸川 (Edogawa),2017-03-22,15:01～16:00,0.0561,0.0498,0.0532,
江戸川 (Edogawa),2017-03-22,14:01～15:00,0.0570,0.0485,0.0533,
江戸川 (Edogawa),2017-03-22,13:01～14:00,0.0563,0.0494,0.0530,
江戸川 (Edogawa),2017-03-22,12:01～13:00,0.0570,0.0505,0.0537,
江戸川 (Edogawa),2017-03-22,11:01～12:00,0.0574,0.0499,0.0533,
江戸川 (Edogawa),2017-03-22,10:01～11:00,0.0563,0.0499,0.0533,
江戸川 (Edogawa),2017-03-22,09:01～10:00,0.0582,0.0503,0.0530,
江戸川 (Edogawa),2017-03-22,08:01～09:00,0.0551,0.0500,0.0522,
江戸川 (Edogawa),2017-03-22,07:01～08:00,0.0556,0.0483,0.0522,
江戸川 (Edogawa),2017-03-22,06:01～07:00,0.0562,0.0491,0.0521,
江戸川 (Edogawa),2017-03-22,05:01～06:00,0.0550,0.0476,0.0520,
江戸川 (Edogawa),2017-03-22,04:01～05:00,0.0555,0.0479,0.0520,
江戸川 (Edogawa),2017-03-22,03:01～04:00,0.0551,0.0491,0.0520,
江戸川 (Edogawa),2017-03-22,02:01～03:00,0.0554,0.0486,0.0522,
江戸川 (Edogawa),2017-03-22,01:01～02:00,0.0562,0.0493,0.0523,
江戸川 (Edogawa),2017-03-22,00:01～01:00,0.0552,0.0489,0.0524,
江戸川 (Edogawa),2017-03-21,23:01～24:00,0.0568,0.0503,0.0536,
江戸川 (Edogawa),2017-03-21,22:01～23:00,0.0623,0.0521,0.0568,
江戸川 (Edogawa),2017-03-21,21:01～22:00,0.0610,0.0552,0.0580,
江戸川 (Edogawa),2017-03-21,20:01～21:00,0.0609,0.0531,0.0568,
江戸川 (Edogawa),2017-03-21,19:01～20:00,0.0587,0.0513,0.0556,
江戸川 (Edogawa),2017-03-21,18:01～19:00,0.0602,0.0522,0.0566,
江戸川 (Edogawa),2017-03-21,17:01～18:00,0.0640,0.0573,0.0609,
江戸川 (Edogawa),2017-03-21,16:01～17:00,0.0665,0.0590,0.0628,
江戸川 (Edogawa),2017-03-21,15:01～16:00,0.0691,0.0604,0.0647,
江戸川 (Edogawa),2017-03-21,14:01～15:00,0.0660,0.0570,0.0618,
江戸川 (Edogawa),2017-03-21,13:01～14:00,0.0620,0.0533,0.0573,
江戸川 (Edogawa),2017-03-21,12:01～13:00,0.0616,0.0541,0.0580,
江戸川 (Edogawa),2017-03-21,11:01～12:00,0.0683,0.0571,0.0612,
江戸川 (Edogawa),2017-03-21,10:01～11:00,0.0691,0.0618,0.0655,
江戸川 (Edogawa),2017-03-21,09:01～10:00,0.0710,0.0591,0.0661,
江戸川 (Edogawa),2017-03-21,08:01～09:00,0.0678,0.0591,0.0639,
江戸川 (Edogawa),2017-03-21,07:01～08:00,0.0655,0.0582,0.0618,
江戸川 (Edogawa),2017-03-21,06:01～07:00,0.0653,0.0539,0.0591,
江戸川 (Edogawa),2017-03-21,05:01～06:00,0.0579,0.0507,0.0550,
江戸川 (Edogawa),2017-03-21,04:01～05:00,0.0605,0.0528,0.0564,
江戸川 (Edogawa),2017-03-21,03:01～04:00,0.0643,0.0560,0.0592,
江戸川 (Edogawa),2017-03-21,02:01～03:00,0.0603,0.0496,0.0558,
江戸川 (Edogawa),2017-03-21,01:01～02:00,0.0596,0.0520,0.0545,
江戸川 (Edogawa),2017-03-21,00:01～01:00,0.0584,0.0520,0.0550,
江戸川 (Edogawa),2017-03-20,23:01～24:00,0.0593,0.0509,0.0548,
江戸川 (Edogawa),2017-03-20,22:01～23:00,0.0583,0.0525,0.0548,
江戸川 (Edogawa),2017-03-20,21:01～22:00,0.0579,0.0524,0.0549,
江戸川 (Edogawa),2017-03-20,20:01～21:00,0.0578,0.0509,0.0549,
江戸川 (Edogawa),2017-03-20,19:01～20:00,0.0579,0.0508,0.0545,
江戸川 (Edogawa),2017-03-20,18:01～19:00,0.0581,0.0519,0.0549,
江戸川 (Edogawa),2017-03-20,17:01～18:00,0.0587,0.0514,0.0549,
江戸川 (Edogawa),2017-03-20,16:01～17:00,0.0601,0.0521,0.0547,
江戸川 (Edogawa),2017-03-20,15:01～16:00,0.0591,0.0516,0.0548,
江戸川 (Edogawa),2017-03-20,14:01～15:00,0.0583,0.0510,0.0547,
江戸川 (Edogawa),2017-03-20,13:01～14:00,0.0580,0.0518,0.0550,
江戸川 (Edogawa),2017-03-20,12:01～13:00,0.0591,0.0526,0.0554,
江戸川 (Edogawa),2017-03-20,11:01～12:00,0.0587,0.0520,0.0549,
江戸川 (Edogawa),2017-03-20,10:01～11:00,0.0578,0.0504,0.0545,
江戸川 (Edogawa),2017-03-20,09:01～10:00,0.0583,0.0511,0.0545,
江戸川 (Edogawa),2017-03-20,08:01～09:00,0.0582,0.0520,0.0549,
江戸川 (Edogawa),2017-03-20,07:01～08:00,0.0578,0.0511,0.0544,
江戸川 (Edogawa),2017-03-20,06:01～07:00,0.0573,0.0514,0.0543,
江戸川 (Edogawa),2017-03-20,05:01～06:00,0.0577,0.0506,0.0542,
江戸川 (Edogawa),2017-03-20,04:01～05:00,0.0578,0.0506,0.0544,
江戸川 (Edogawa),2017-03-20,03:01～04:00,0.0584,0.0520,0.0545,
江戸川 (Edogawa),2017-03-20,02:01～03:00,0.0577,0.0513,0.0540,
江戸川 (Edogawa),2017-03-20,01:01～02:00,0.0582,0.0511,0.0544,
江戸川 (Edogawa),2017-03-20,00:01～01:00,0.0573,0.0511,0.0543,
